RH
43 44 46 50 51 52 52 53 54 54 54 54 54 54 55 55 54 52 45 37 29 24 21 19 18 19 20 22 24 24 24 23 23 27 33 38 39 41 45 48 49 44 35 34 41 43 44 44 43 41 39 37 34 32 30 29 28 27 25 24 23 22 21
45 46 49 50 51 52 53 54 55 55 55 55 55 56 57 56 54 51 43 34 27 22 20 20 20 20 22 24 25 25 25 24 24 28 34 40 43 43 46 49 49 48 43 39 42 46 46 43 41 38 35 34 32 30 29 29 29 29 29 28 27 26 26
48 49 50 50 51 52 53 55 56 56 56 56 56 57 57 57 54 48 41 34 27 22 21 22 22 23 24 25 26 27 27 27 26 30 36 41 45 45 46 48 50 50 47 42 41 43 42 38 35 33 32 33 34 35 36 35 35 34 33 33 33 31 29
51 51 50 50 51 53 54 56 57 57 57 56 57 58 58 57 53 46 39 33 26 23 22 24 24 24 25 27 28 28 29 30 29 31 36 41 45 47 47 50 51 50 48 44 39 37 37 35 33 34 37 39 40 42 43 40 38 37 36 35 33 32 31
53 51 51 51 52 54 55 58 58 58 58 57 58 58 58 56 51 45 38 31 27 25 24 26 26 26 27 29 29 30 32 32 32 33 36 40 44 48 50 52 53 53 52 48 43 39 38 37 38 42 46 48 46 45 43 40 38 36 36 35 34 33 32
54 52 52 52 53 56 58 59 59 58 58 58 58 59 58 56 51 45 38 32 29 27 27 28 28 28 29 30 31 32 34 35 35 35 36 39 43 47 51 54 55 56 56 53 50 47 45 45 47 50 53 52 49 45 41 39 38 37 36 36 35 33 31
54 53 54 54 56 58 60 60 60 59 59 59 59 59 58 56 50 43 38 34 30 29 29 30 30 29 30 31 33 34 36 37 36 36 37 39 42 47 51 55 57 59 60 59 58 57 56 56 55 54 53 51 48 44 42 42 40 37 37 36 35 33 31
56 56 56 57 59 61 62 62 61 60 60 60 60 60 59 55 49 43 39 35 32 31 31 31 32 32 32 33 34 36 38 39 38 38 39 41 45 50 54 59 61 63 65 67 67 67 66 63 57 53 52 50 49 47 46 48 46 41 38 38 35 33 30
58 58 58 59 61 63 63 63 63 62 61 61 62 61 59 55 49 44 40 37 34 33 33 33 34 34 35 36 37 37 39 41 41 40 40 42 47 53 57 62 66 70 74 75 75 73 69 63 56 52 51 51 52 53 51 52 52 47 42 39 35 29 25
60 59 59 61 63 64 65 65 64 64 63 64 64 63 60 56 52 47 43 39 37 35 35 36 36 37 38 40 41 42 43 45 46 44 42 43 47 53 61 68 73 76 79 79 76 73 70 63 54 51 54 55 57 59 58 56 54 50 44 37 30 24 22
60 59 61 63 64 66 67 66 66 66 66 66 65 62 59 59 58 54 49 44 40 37 35 36 37 38 40 41 42 44 46 48 49 48 46 47 50 58 69 78 84 86 87 85 81 76 73 65 56 55 59 61 61 62 61 58 54 49 41 33 28 23 22
60 60 62 64 66 68 69 69 69 69 70 69 67 62 57 56 57 55 51 46 42 38 36 36 37 37 39 40 41 42 44 46 48 49 48 50 57 68 78 87 91 89 87 85 80 76 72 66 60 60 61 61 61 62 60 57 52 46 38 33 32 29 28
59 60 62 65 68 70 72 73 73 73 73 72 71 67 59 55 54 52 49 45 41 40 40 40 42 41 41 42 42 42 43 45 46 46 47 52 63 75 85 92 95 93 88 83 76 69 64 62 62 60 58 60 61 61 59 57 51 44 38 36 37 36 36
58 59 63 66 70 73 75 76 76 77 78 76 75 71 64 59 57 53 48 44 42 44 46 47 48 47 46 46 45 44 44 45 45 44 46 53 65 79 89 94 96 97 96 93 86 76 68 68 67 64 63 65 66 64 62 60 53 45 43 41 39 38 39
56 59 63 68 72 75 78 80 81 82 82 81 79 75 70 67 64 56 48 44 44 47 51 52 51 50 51 51 49 48 48 47 46 45 48 55 68 81 92 97 96 94 92 90 87 83 78 77 76 74 73 72 71 70 68 67 63 58 54 48 39 38 42
55 59 64 69 74 78 81 84 86 86 85 84 83 80 78 75 69 59 49 44 46 52 55 54 53 54 55 53 52 51 50 49 48 48 51 59 72 84 93 94 93 92 88 84 82 80 80 80 81 82 80 76 75 76 79 81 77 69 63 57 49 46 47
54 59 65 71 77 82 85 87 89 89 89 88 87 86 84 80 73 62 50 44 48 55 57 56 56 58 57 55 54 52 51 51 51 50 53 62 75 88 94 93 92 91 86 82 81 80 80 82 85 86 84 81 80 85 92 94 84 73 70 68 61 53 52
54 60 67 73 80 85 87 88 90 92 91 91 91 90 88 83 75 63 51 45 49 55 57 56 57 59 57 54 53 53 53 54 55 55 57 65 76 86 90 90 91 90 86 84 84 83 82 83 86 87 84 81 82 88 98 100 92 87 87 83 74 66 63
55 61 68 76 84 89 90 89 91 93 94 93 92 91 89 85 76 62 50 47 52 57 58 57 58 59 58 55 54 54 54 56 58 60 63 72 82 86 85 86 87 85 82 81 81 81 82 84 87 89 87 85 85 90 97 101 97 92 88 83 79 77 76
56 62 70 81 88 91 92 92 92 94 95 94 92 92 92 86 75 60 49 48 54 57 57 56 57 60 61 60 59 58 59 61 64 67 70 76 83 86 86 87 86 80 76 76 76 77 78 79 82 87 89 89 90 94 100 105 105 98 88 82 79 78 79
57 64 73 84 91 93 94 94 94 95 96 94 93 94 94 87 73 57 49 50 55 58 56 54 57 63 65 63 62 64 67 68 70 77 83 85 85 87 89 86 81 78 78 79 78 76 74 74 76 80 82 83 84 88 94 99 98 93 86 80 78 78 79
59 68 77 87 94 95 94 94 96 96 95 95 94 94 94 87 71 56 51 53 56 58 56 55 60 66 67 65 64 66 70 72 76 86 93 93 93 97 95 89 87 90 93 92 89 83 78 77 80 82 83 82 81 84 90 90 80 69 66 68 70 74 77
63 72 81 90 95 95 94 95 97 97 97 97 95 93 92 86 70 55 54 57 57 57 57 58 62 67 68 68 67 66 68 73 81 87 90 91 98 102 99 96 99 103 103 100 96 90 84 83 84 85 86 85 85 86 90 89 75 60 56 62 67 72 77
66 77 87 94 95 93 95 97 98 99 101 99 95 92 91 83 67 55 56 60 61 61 61 62 66 70 74 76 75 73 72 74 78 85 92 99 104 104 101 101 103 104 103 99 93 87 83 83 85 85 85 85 86 86 88 88 77 60 53 59 66 73 79
71 83 93 97 95 92 93 97 98 100 101 99 93 89 87 80 64 53 55 60 64 68 67 65 69 76 82 85 85 82 80 79 80 85 93 100 104 103 103 104 102 100 97 91 85 82 80 80 81 82 83 84 84 85 88 89 78 59 51 57 65 72 79
77 89 97 98 96 92 91 92 95 96 98 97 92 88 85 76 61 50 50 57 66 72 72 69 73 81 88 91 91 89 86 86 87 88 90 94 96 97 98 98 96 94 90 84 80 81 79 77 77 78 80 84 85 85 88 88 77 58 48 55 65 71 76
84 94 99 101 98 93 88 87 89 92 95 95 93 92 86 72 58 51 52 60 72 79 79 77 80 84 88 91 91 91 91 90 91 93 94 97 98 96 94 92 90 89 86 83 83 82 78 76 76 78 82 87 87 86 87 87 78 59 47 54 66 72 74
90 97 102 103 98 91 85 82 84 89 93 94 94 92 82 66 56 53 54 61 75 84 84 81 81 83 86 89 89 88 87 85 85 87 89 92 96 98 99 98 97 95 94 92 91 89 85 82 83 87 92 94 91 89 89 90 83 63 48 53 65 71 73
96 100 102 103 100 94 87 82 81 86 89 90 88 80 67 56 52 50 50 56 67 77 78 76 77 80 85 88 86 81 78 77 78 78 78 80 83 86 89 92 96 99 100 101 100 98 96 96 97 98 98 95 91 90 91 93 88 69 51 53 65 73 76
101 101 101 101 99 94 87 80 79 81 82 81 74 63 54 50 49 48 47 46 50 58 65 67 70 77 82 84 80 75 73 75 76 75 76 78 78 80 81 82 85 89 93 97 101 102 102 103 103 99 95 92 91 90 91 94 90 72 54 53 66 76 80
102 102 102 100 94 90 85 81 80 79 74 68 61 54 52 53 53 55 57 52 47 51 61 69 73 78 83 84 80 75 74 76 77 77 78 79 81 82 83 82 83 84 84 86 92 99 103 104 102 96 92 91 90 90 92 95 91 74 57 55 68 79 81
102 101 102 100 98 97 96 92 85 76 66 58 53 52 54 55 55 59 65 62 54 52 64 80 87 88 88 89 87 83 80 79 79 81 82 81 82 84 86 86 86 86 83 81 84 93 101 104 102 97 93 91 90 90 91 93 90 76 59 57 71 83 82
102 101 101 101 102 102 99 90 77 65 58 54 53 54 57 58 57 57 60 60 55 53 65 83 94 95 94 95 95 93 90 86 85 85 85 83 83 84 87 89 89 87 85 84 84 89 97 103 103 99 95 93 92 91 90 92 91 77 60 59 74 86 87
103 103 102 100 97 92 83 72 62 56 54 55 57 60 62 60 56 53 54 56 55 54 62 74 85 91 95 96 96 97 97 95 93 91 90 88 86 86 88 91 90 89 87 86 87 90 97 102 103 101 99 97 95 93 92 93 91 77 61 63 78 88 88
94 95 91 86 79 72 65 58 54 54 56 58 61 65 65 59 54 51 53 55 55 57 63 71 80 88 93 95 96 98 101 102 100 98 95 93 89 87 88 90 90 89 87 88 91 95 99 102 102 102 100 97 96 94 94 95 93 79 62 65 82 91 88
76 75 71 66 61 58 56 54 53 53 54 56 59 61 59 54 51 50 51 52 54 61 70 77 84 91 94 96 98 98 99 102 103 102 100 96 91 88 88 89 90 90 89 90 94 99 102 103 102 101 100 97 95 94 94 97 95 80 64 69 87 94 89
Wind_Speed
52 52 52 52 52 51 51 51 52 52 52 52 51 51 51 52 52 52 52 51 51 50 49 49 48 48 47 47 47 46 45 45 44 44 43 43 42 41 41 42 44 46 45 40 40 43 42 41 41 42 42 43 44 44 45 46 47 48 48 49 50 51 51
52 52 52 52 52 52 51 51 52 52 52 51 51 51 52 52 52 52 51 51 50 50 49 49 48 47 46 46 46 46 45 44 43 43 43 42 42 42 41 42 43 46 47 44 41 42 43 41 42 43 43 43 45 45 46 47 48 48 49 50 51 52 52
52 52 52 52 52 52 51 52 51 51 51 51 51 51 51 52 52 51 51 50 50 49 49 49 48 47 46 46 46 45 44 43 42 42 42 42 42 42 42 41 43 45 47 47 44 44 43 42 43 44 44 44 45 46 46 47 48 49 50 50 51 52 52
52 51 51 52 52 51 51 51 51 51 51 50 50 51 51 52 51 51 51 50 50 49 49 48 47 46 45 46 46 45 43 42 41 41 41 41 41 42 42 41 43 45 46 48 48 45 44 43 44 45 44 44 45 45 46 48 48 49 49 50 50 50 51
51 51 51 51 51 51 51 51 51 51 50 50 50 51 51 51 51 51 50 49 49 49 48 48 47 46 45 45 45 44 42 41 40 40 41 41 41 41 41 42 43 44 45 48 49 47 45 44 44 45 45 44 45 46 46 47 47 47 48 48 48 49 50
50 50 51 51 51 51 51 50 50 50 50 50 50 51 51 51 51 50 50 49 49 49 48 47 46 45 45 45 44 43 41 40 40 40 40 40 40 40 41 42 42 43 45 47 48 48 46 44 43 44 45 44 44 46 46 46 46 45 45 46 48 49 50
50 50 51 50 50 50 50 50 50 49 49 49 50 50 50 50 50 50 49 49 49 49 48 47 45 45 44 44 43 42 41 40 39 39 39 38 39 39 40 42 42 43 45 46 47 47 46 45 43 43 44 44 43 45 45 45 45 45 45 46 47 50 51
50 50 50 50 50 50 50 50 49 49 49 49 49 50 50 50 49 49 49 49 49 48 48 46 45 44 44 43 42 41 40 39 38 38 38 37 37 38 40 41 42 43 44 45 46 45 45 44 43 43 43 44 44 44 44 44 45 46 47 47 48 50 51
50 50 49 49 49 49 49 49 49 48 49 49 49 49 49 49 49 49 48 48 49 48 47 46 44 43 43 42 42 41 40 39 38 38 38 36 36 38 40 41 42 43 43 44 44 44 43 43 43 42 42 43 43 43 43 43 45 47 48 49 50 50 48
49 49 48 48 48 48 49 48 48 48 48 48 49 49 49 49 48 48 48 48 48 48 46 45 43 42 41 41 40 40 39 38 37 38 38 37 37 38 39 41 42 42 42 42 43 42 42 43 43 41 41 42 42 42 43 44 45 48 48 48 50 49 44
48 48 48 48 48 48 48 48 47 47 47 47 48 48 49 50 49 48 47 47 48 47 46 44 42 40 39 39 38 37 37 36 36 37 37 37 37 38 39 40 40 40 40 41 42 42 42 43 43 40 40 41 41 41 42 43 45 47 47 45 46 46 42
48 47 47 47 48 48 48 47 46 46 46 46 46 47 48 49 49 48 47 47 48 47 46 44 42 41 39 38 36 36 36 35 35 35 36 36 37 38 38 39 39 39 39 40 42 43 43 42 41 39 39 39 39 40 42 43 44 45 44 43 43 44 43
47 47 46 47 47 48 48 46 45 45 46 46 45 45 46 48 48 47 47 47 47 47 46 44 43 42 41 39 37 36 35 35 34 34 34 35 36 37 37 37 37 38 39 40 42 44 43 41 39 39 38 37 38 40 42 43 44 43 43 43 42 43 43
46 46 46 46 47 47 47 45 44 44 45 45 45 44 45 46 46 46 46 45 45 45 45 44 43 43 43 41 39 37 36 35 34 34 34 34 35 35 36 36 36 36 37 39 42 44 43 41 40 40 39 38 39 41 43 43 43 43 42 43 43 43 41
46 46 46 46 46 47 46 44 43 44 44 44 44 43 44 45 45 46 45 44 43 43 43 42 42 42 42 41 40 37 36 36 35 34 34 34 34 34 35 35 35 35 36 38 40 41 42 41 40 40 39 39 39 41 42 42 42 42 42 43 43 42 40
45 45 45 45 45 46 46 44 43 44 44 43 43 43 44 44 44 44 44 43 42 42 41 41 41 41 41 41 40 37 36 36 35 35 35 35 34 35 36 36 35 35 37 38 38 39 39 39 39 39 39 39 39 40 40 40 42 43 43 44 45 44 42
45 45 45 45 45 45 45 44 43 43 43 43 42 42 43 44 44 43 42 41 40 40 40 39 39 39 40 40 39 37 36 35 35 36 36 35 34 35 37 37 36 36 37 37 37 38 38 38 38 38 38 37 37 37 38 41 44 44 44 46 47 47 44
45 45 44 44 44 44 45 44 42 42 43 42 41 42 43 43 43 42 41 40 39 39 38 38 38 38 39 39 38 37 35 34 34 36 36 36 36 37 38 37 36 36 37 36 37 37 37 37 38 38 37 36 36 37 38 42 44 45 46 48 49 49 48
45 44 44 43 43 43 44 43 42 41 42 41 41 41 43 43 42 41 40 39 39 38 37 37 37 37 38 38 37 35 34 32 32 34 35 35 37 39 39 38 37 38 37 37 36 36 35 36 36 36 36 35 35 37 39 41 42 43 45 48 49 49 50
44 44 43 42 42 42 43 43 42 41 41 41 40 41 42 42 41 40 39 38 38 38 37 37 36 35 34 35 34 33 32 30 30 32 33 35 38 40 39 39 39 40 39 37 36 35 33 32 32 32 33 33 33 35 37 39 40 40 42 46 48 48 49
44 44 43 42 42 42 41 42 42 41 41 40 40 40 41 41 40 38 38 38 38 38 38 36 35 33 31 31 31 30 30 29 29 29 32 35 38 38 39 40 41 40 39 38 38 37 35 33 32 31 31 31 32 33 35 37 38 38 39 42 45 46 47
44 43 43 42 41 40 40 41 42 41 40 39 39 40 40 40 39 37 37 38 38 38 37 35 33 31 30 29 28 28 28 28 28 28 31 34 36 37 39 41 40 39 39 40 40 40 39 37 35 34 33 33 33 33 35 36 36 36 37 40 42 44 46
43 43 43 41 40 39 39 41 42 41 39 39 39 39 39 38 37 36 36 38 39 38 36 34 32 31 29 28 28 27 27 27 28 29 30 31 33 36 38 38 37 38 40 41 41 41 41 40 38 37 36 35 35 35 36 36 35 35 37 40 41 42 44
43 43 43 41 39 38 38 40 41 40 39 38 39 39 38 37 35 34 35 38 38 37 35 34 32 31 30 29 29 28 27 27 28 28 28 29 31 34 36 36 38 39 41 41 41 41 41 41 39 38 38 37 36 37 36 36 35 35 36 39 41 41 42
42 42 42 41 39 38 38 39 40 39 38 38 39 39 38 36 35 34 34 36 36 35 34 33 32 31 31 31 30 28 28 28 28 28 28 29 31 33 35 37 39 40 41 42 42 41 41 41 40 39 38 37 37 37 36 35 35 35 36 38 40 40 39
42 42 42 41 39 38 38 39 39 38 38 38 39 38 37 36 35 34 34 35 35 34 34 33 32 31 31 31 30 28 28 27 28 29 29 30 32 34 36 38 39 41 42 43 42 42 41 40 40 39 38 37 37 36 34 34 35 35 35 36 39 39 37
42 42 41 40 39 38 39 39 38 37 37 38 39 38 37 36 35 34 35 35 34 34 33 32 32 31 31 30 29 28 27 27 28 29 30 31 32 34 36 38 40 42 43 43 43 43 42 40 39 39 38 37 37 36 34 34 35 35 34 34 37 37 34
42 41 41 40 39 39 39 38 37 37 37 37 37 37 36 35 34 34 34 34 34 33 32 32 32 31 30 29 28 28 28 28 28 29 30 31 32 33 35 38 40 42 43 43 44 44 42 40 39 39 38 38 38 36 35 35 36 35 33 33 35 35 32
41 41 40 40 39 39 40 39 38 37 38 37 36 35 34 33 33 33 33 33 33 33 32 31 30 29 29 28 28 29 29 29 29 30 30 31 32 33 34 36 38 40 41 43 44 44 43 41 39 38 37 37 37 36 35 35 36 35 33 33 33 33 30
41 40 40 41 39 39 39 39 38 38 38 38 36 35 34 33 33 33 33 33 34 33 31 30 29 28 28 29 29 29 29 30 30 30 31 32 32 33 34 35 36 38 39 41 43 43 42 40 39 37 36 36 36 35 35 35 35 34 33 32 32 31 29
41 40 41 42 42 41 40 39 39 39 39 38 37 36 34 33 33 33 34 35 36 35 33 31 30 30 30 30 31 30 30 31 32 32 32 32 33 33 34 35 36 37 38 39 40 40 40 39 38 36 35 35 35 35 34 34 33 32 32 31 30 29 28
40 40 41 42 43 43 42 41 40 39 39 38 37 36 35 34 33 33 34 36 37 36 35 34 33 33 33 33 33 32 32 33 33 33 33 34 33 33 34 35 36 37 37 37 37 38 38 37 36 36 35 34 34 34 33 33 32 31 31 30 29 28 27
38 39 40 41 41 42 42 41 41 40 38 37 36 35 35 35 35 35 35 37 37 36 35 34 34 34 34 35 35 34 35 35 35 34 35 35 35 34 34 35 36 37 36 36 36 36 36 36 35 35 34 34 34 34 33 32 30 30 30 29 28 27 26
36 37 40 41 41 41 41 41 40 39 37 36 35 35 36 36 36 36 36 37 37 36 35 35 35 35 35 35 36 36 36 36 36 36 36 36 35 35 35 35 36 36 36 36 36 35 35 34 34 34 34 34 34 34 32 31 29 29 29 28 27 26 25
35 36 38 40 40 40 40 40 39 38 36 36 36 36 37 38 37 36 36 37 37 37 36 36 36 36 36 36 36 36 37 37 36 36 37 36 36 36 35 35 35 35 35 34 34 34 33 33 33 33 34 34 34 33 31 30 29 28 28 27 26 25 24
36 36 36 37 38 39 39 39 38 37 36 36 36 37 38 38 37 36 35 36 36 37 37 37 36 37 37 37 37 37 37 37 37 37 37 37 37 36 36 35 35 34 34 33 33 32 32 32 32 33 33 34 33 32 30 29 28 28 27 27 26 25 24
Wind_Direction
296 295 296 297 298 299 300 300 300 300 300 301 302 303 302 301 300 300 300 299 299 298 297 296 295 294 293 292 291 290 288 285 283 281 279 278 277 276 275 275 275 275 274 271 271 273 273 273 273 272 273 273 273 273 273 273 273 273 273 272 271 270 269
295 295 296 297 298 299 299 299 299 300 301 302 302 302 301 301 300 299 299 298 298 297 296 295 294 294 293 291 290 289 287 284 282 280 278 277 276 275 274 274 275 275 275 273 272 274 274 274 274 274 274 275 276 276 276 276 276 276 275 275 275 273 272
294 295 296 297 298 298 299 299 299 300 301 301 302 301 300 300 299 299 298 298 297 296 295 294 294 293 292 290 289 289 287 285 282 279 278 276 276 275 274 274 274 275 276 275 274 274 274 275 275 276 276 277 277 277 278 277 277 277 277 277 277 276 275
294 295 296 296 297 298 298 299 299 300 301 301 301 300 300 299 298 298 298 297 296 296 294 294 293 293 292 290 289 288 287 285 282 279 277 276 275 275 274 274 274 274 276 276 276 275 276 276 277 278 278 278 278 278 278 278 278 279 279 279 279 278 278
294 295 295 296 297 297 298 299 299 300 300 301 300 299 299 298 297 297 297 296 296 295 294 293 293 293 292 290 289 288 287 285 282 279 277 276 275 275 275 274 274 274 275 276 277 277 278 278 279 279 280 280 280 280 279 279 279 280 281 281 281 280 279
294 294 294 295 296 297 298 299 299 300 300 300 299 299 298 297 297 296 296 295 295 294 293 293 293 292 291 290 289 289 287 285 281 278 276 275 275 275 274 273 273 273 274 275 276 278 279 279 280 280 280 281 281 281 281 281 281 281 281 282 281 280 278
293 293 294 296 297 298 299 299 299 300 300 299 298 297 297 296 296 296 295 295 294 293 293 293 293 292 291 290 289 289 287 284 281 278 276 275 275 274 273 272 272 272 273 274 276 278 279 280 280 280 281 282 283 284 285 286 285 282 281 281 280 279 279
293 293 295 297 298 299 299 299 299 299 299 298 297 297 296 296 296 295 295 294 294 293 293 293 293 292 291 291 290 289 287 285 282 279 277 275 274 273 272 271 271 272 273 274 276 277 279 280 280 281 283 285 286 287 288 289 288 286 284 283 282 281 281
293 294 296 297 298 298 298 299 299 299 298 297 297 296 296 295 295 295 295 294 294 293 293 293 293 292 292 292 291 290 288 286 284 280 277 275 272 271 270 270 270 271 272 274 276 277 279 279 280 282 284 287 289 290 290 291 290 289 288 287 285 283 281
294 295 297 298 298 298 298 299 299 299 298 297 297 296 295 294 294 294 294 294 293 292 292 292 292 292 292 292 291 289 288 285 283 280 277 275 272 270 269 270 270 271 273 275 276 278 279 279 281 284 287 288 289 290 291 290 290 289 290 289 286 282 279
295 296 297 298 298 298 298 299 299 298 298 297 297 296 295 294 294 294 294 294 293 292 292 292 292 292 292 291 289 287 285 282 280 278 276 274 271 270 269 270 271 273 275 276 277 278 278 279 283 286 286 286 287 288 288 288 288 290 290 288 285 281 278
296 297 297 298 298 298 298 299 299 299 298 297 296 296 295 295 296 296 296 295 295 295 295 295 295 294 293 292 290 287 283 280 277 274 272 270 269 269 269 270 271 272 273 273 273 274 275 278 282 283 283 284 286 286 287 287 288 289 288 285 283 281 280
296 297 297 298 298 299 299 300 300 299 297 296 296 296 295 294 295 296 296 296 296 296 297 297 298 297 296 295 293 289 284 281 277 273 270 268 267 268 268 270 272 274 275 275 276 277 278 281 283 284 284 286 287 287 288 288 289 288 285 283 281 281 281
296 297 297 298 299 299 300 301 300 298 297 296 296 296 294 294 294 295 295 295 295 295 296 297 297 296 296 296 294 291 287 283 279 275 271 269 267 268 269 269 270 272 274 276 278 281 284 286 287 287 288 289 289 289 289 290 290 287 284 283 282 283 283
296 297 298 298 299 300 301 301 300 298 297 296 296 295 294 294 295 295 294 294 294 294 295 295 295 295 295 294 293 291 288 285 282 278 274 271 269 269 269 269 270 271 271 272 275 278 281 284 285 287 288 289 289 289 290 290 289 287 285 284 285 286 286
297 298 298 299 300 300 301 301 300 298 297 297 297 296 295 295 295 295 295 295 294 294 294 294 294 293 293 292 291 289 287 284 282 279 275 274 273 272 271 270 271 272 272 273 274 276 278 280 282 283 285 286 287 288 289 288 285 284 284 285 286 286 286
298 298 299 300 300 300 301 301 300 298 297 297 297 297 296 296 296 295 295 294 293 292 292 292 292 292 291 290 289 288 286 284 283 280 278 276 274 273 272 272 272 273 273 274 276 276 277 278 279 279 281 283 285 285 282 281 281 283 284 283 285 285 285
298 298 299 300 301 301 301 301 300 298 298 298 298 298 297 297 297 296 295 294 293 292 291 290 290 291 291 290 289 287 286 284 283 281 280 278 276 273 271 271 271 272 273 274 275 276 277 278 278 279 280 282 283 281 277 276 278 280 280 279 281 283 284
298 298 299 300 301 301 301 301 300 298 298 298 299 299 298 298 297 297 295 294 292 291 290 290 291 293 294 294 292 289 286 284 282 280 279 278 277 274 273 274 274 274 273 273 274 275 277 278 278 279 280 281 281 281 278 276 276 276 276 276 277 279 281
298 299 300 301 302 302 302 301 299 298 298 299 300 300 299 298 298 297 295 293 291 290 289 289 292 295 296 296 293 290 287 284 281 280 278 276 274 275 276 276 275 275 276 277 278 279 278 277 276 275 274 274 275 276 277 276 275 275 275 275 276 276 277
299 300 301 302 302 303 302 300 299 298 299 300 300 300 299 298 298 296 294 292 291 290 290 292 295 297 298 295 292 289 284 280 278 277 275 275 276 278 278 277 278 280 284 285 285 286 285 284 282 279 276 275 274 274 275 276 275 274 273 272 273 273 273
300 300 301 303 303 303 302 299 298 298 299 300 301 300 299 299 298 296 293 291 290 289 291 293 295 296 296 295 293 289 284 280 277 272 270 271 274 274 276 279 282 286 287 286 287 288 289 289 288 286 284 282 280 279 279 279 278 276 273 271 270 270 270
301 301 302 303 303 303 301 298 297 299 300 301 300 300 299 298 296 294 291 290 290 290 292 294 295 296 297 297 297 295 290 285 279 274 272 272 272 272 275 279 281 281 281 282 284 286 288 289 289 288 286 285 283 282 281 281 280 277 274 272 270 269 270
301 301 302 303 303 302 299 297 297 299 301 301 300 300 299 298 295 292 289 288 289 292 294 294 295 297 299 300 300 299 296 291 286 281 279 276 273 273 275 276 276 276 277 279 281 283 285 287 287 287 286 284 282 281 281 281 281 276 271 270 269 268 269
302 302 302 302 303 301 298 297 298 299 300 300 300 299 299 298 294 290 287 287 289 291 292 293 294 296 298 300 301 299 296 293 289 285 281 276 272 271 272 272 273 274 276 277 280 282 283 285 286 285 285 283 281 280 280 281 280 275 270 268 268 268 268
302 302 302 302 302 300 298 297 298 300 300 300 300 300 300 298 294 291 289 288 289 290 290 291 293 294 295 297 298 297 294 291 289 286 282 279 275 272 271 271 272 273 274 276 279 280 281 283 284 284 283 282 280 279 279 280 279 275 270 268 268 268 267
302 302 302 301 301 300 298 298 299 300 301 300 300 301 299 297 294 292 290 288 288 289 289 289 289 290 292 294 295 293 291 288 285 284 282 281 279 276 274 274 273 273 275 276 277 279 280 281 283 284 285 284 283 282 282 281 280 277 272 269 269 269 267
302 302 301 300 300 300 299 299 300 301 300 299 299 298 296 294 292 289 287 286 286 285 285 285 286 287 289 292 293 290 288 285 282 280 278 277 277 276 275 274 274 274 274 275 276 277 278 279 280 282 283 283 283 284 283 282 281 279 275 271 271 271 271
302 302 301 300 300 300 299 299 300 299 298 297 297 295 293 291 288 285 284 282 281 281 281 282 284 286 288 290 290 288 288 287 285 282 280 278 276 275 274 273 273 272 272 272 272 273 274 275 276 277 279 280 280 281 280 279 279 279 276 273 273 274 274
302 302 301 299 299 298 298 299 299 299 299 299 299 297 295 294 291 289 288 285 283 283 284 285 286 286 287 287 288 289 289 290 289 287 286 283 280 278 277 275 274 274 272 270 269 270 271 272 273 275 277 278 279 279 278 278 278 278 276 273 273 273 273
302 302 301 300 300 299 299 300 301 301 301 301 301 300 299 297 296 295 293 290 289 290 291 292 291 290 288 288 288 289 290 290 290 290 290 288 285 283 281 278 277 275 274 272 271 270 270 271 273 275 277 278 279 279 278 277 278 278 276 274 273 273 271
302 301 301 300 301 302 303 303 303 302 302 302 301 300 299 296 295 293 290 288 289 291 292 293 292 291 290 289 289 289 290 290 291 291 291 290 289 287 284 281 280 278 277 276 274 273 272 272 273 275 276 278 279 279 278 277 277 277 275 273 272 272 270
301 300 299 299 299 300 301 302 301 301 301 300 299 297 296 294 292 290 288 287 288 289 289 289 288 288 288 288 288 288 288 289 290 291 291 291 291 291 288 285 282 281 279 278 276 274 272 272 273 275 277 278 279 279 278 276 276 276 274 272 271 270 268
299 299 298 299 299 299 299 299 299 300 300 299 297 296 293 291 290 290 289 288 288 287 286 285 285 285 286 286 286 287 287 288 290 290 291 292 292 292 290 287 284 282 280 278 276 274 273 273 273 275 277 278 278 278 278 276 276 275 273 271 270 269 266
299 298 298 298 298 298 298 297 298 299 299 298 296 294 292 291 291 291 290 288 287 286 285 285 285 285 285 285 286 287 287 288 289 290 290 291 291 291 291 289 285 282 280 277 276 274 273 273 273 274 275 276 277 277 277 276 275 274 272 270 269 268 265
302 300 299 299 298 297 296 297 298 299 298 297 295 293 292 292 292 290 288 286 286 285 284 284 284 285 285 286 286 286 287 288 288 289 289 290 290 291 291 290 287 283 279 277 275 273 273 272 273 273 274 275 275 276 275 274 273 272 271 269 268 267 264